Location: Luxembourg
(49.6117°N, 6.1300°E)
Time: 23:17:24
(UTC+02:00)

Tiangong 2 - Pass Details

Date: 21 May 2019
Orbit: 376 x 388 km, 42.8° (Epoch: 24 June)

Event Time Altitude Azimuth Distance (km) Brightness Sun altitude
Rises 21:57:24 0° 220° (SW) 2,227 4.9 -5.5°
Reaches altitude 10° 22:00:09 10° 193° (SSW) 1,378 3.6 -5.9°
Maximum altitude 22:01:51 14° 160° (SSE) 1,176 3.0 -6.1°
Drops below altitude 10° 22:03:32 10° 127° (SE) 1,381 3.2 -6.3°
Enters shadow 22:04:07 - 119° (ESE) 1,525 3.4 -6.3°
